SQ5MBG-1 Weather Reports


Display with metric or nautical units.
time (UTC)temp
F
wind
direction
speed
MPH
gust
MPH
rain 1hr
in
rain 24hr
in
rain mn
in
humidity
%
barometer
mb
20260507064416 66 0 0.0 0.0 0.00 0.00 0.00 67 995.1
20260507063916 66 0 0.0 0.0 0.00 0.00 0.00 67 995.0
20260507063416 66 0 0.0 0.0 0.00 0.00 0.00 67 994.9
20260507062916 65 0 0.0 0.0 0.00 0.00 0.00 67 995.0
20260507062416 65 0 0.0 0.0 0.00 0.00 0.00 67 994.9
20260507061916 65 0 0.0 0.0 0.00 0.00 0.00 67 995.0
20260507061416 65 0 0.0 0.0 0.00 0.00 0.00 67 995.0
20260507060916 64 0 0.0 0.0 0.00 0.00 0.00 68 994.9
20260507060416 64 0 0.0 0.0 0.00 0.00 0.00 67 994.9
20260507055916 64 0 0.0 0.0 0.00 0.00 0.00 66 994.9
20260507055416 64 0 0.0 0.0 0.00 0.00 0.00 66 994.8
20260507054916 65 0 0.0 0.0 0.00 0.00 0.00 66 994.8
20260507054416 65 0 0.0 0.0 0.00 0.00 0.00 65 994.6
20260507053916 65 0 0.0 0.0 0.00 0.00 0.00 65 994.8
20260507053416 66 0 0.0 0.0 0.00 0.00 0.00 63 994.7
20260507052916 66 0 0.0 0.0 0.00 0.00 0.00 63 994.9
20260507052416 67 0 0.0 0.0 0.00 0.00 0.00 63 994.8
20260507051916 67 0 0.0 0.0 0.00 0.00 0.00 62 994.7
20260507051416 68 0 0.0 0.0 0.00 0.00 0.00 61 994.6
20260507050916 70 0 0.0 0.0 0.00 0.00 0.00 59 994.4
20260507050416 71 0 0.0 0.0 0.00 0.00 0.00 59 994.4
20260507045916 72 0 0.0 0.0 0.00 0.00 0.00 59 994.4
20260507045416 73 0 0.0 0.0 0.00 0.00 0.00 59 994.2
20260507044916 72 0 0.0 0.0 0.00 0.00 0.00 62 994.3
20260507044416 71 0 0.0 0.0 0.00 0.00 0.00 63 994.3
20260507043916 70 0 0.0 0.0 0.00 0.00 0.00 65 994.1
20260507043416 69 0 0.0 0.0 0.00 0.00 0.00 65 993.9
20260507042916 69 0 0.0 0.0 0.00 0.00 0.00 66 994.0
20260507042416 68 0 0.0 0.0 0.00 0.00 0.00 66 994.2
20260507041916 67 0 0.0 0.0 0.00 0.00 0.00 67 994.0
20260507041416 67 0 0.0 0.0 0.00 0.00 0.00 67 994.1
20260507040916 66 0 0.0 0.0 0.00 0.00 0.00 68 993.9
20260507040416 66 0 0.0 0.0 0.00 0.00 0.00 69 993.9
20260507035916 65 0 0.0 0.0 0.00 0.00 0.00 68 993.9
20260507035416 65 0 0.0 0.0 0.00 0.00 0.00 68 993.8
20260507034916 64 0 0.0 0.0 0.00 0.00 0.00 68 993.9
20260507034416 65 0 0.0 0.0 0.00 0.00 0.00 68 993.9
20260507033916 65 0 0.0 0.0 0.00 0.00 0.00 67 993.8
20260507033416 65 0 0.0 0.0 0.00 0.00 0.00 67 993.7
20260507032916 65 0 0.0 0.0 0.00 0.00 0.00 67 993.6
20260507032416 65 0 0.0 0.0 0.00 0.00 0.00 67 993.4
20260507031916 65 0 0.0 0.0 0.00 0.00 0.00 67 993.6
20260507031417 65 0 0.0 0.0 0.00 0.00 0.00 67 993.4
20260507030916 65 0 0.0 0.0 0.00 0.00 0.00 67 993.4
20260507030416 65 0 0.0 0.0 0.00 0.00 0.00 67 993.4
20260507025917 65 0 0.0 0.0 0.00 0.00 0.00 67 993.3
20260507025417 65 0 0.0 0.0 0.00 0.00 0.00 67 993.2
20260507024917 66 0 0.0 0.0 0.00 0.00 0.00 66 993.2
20260507024417 66 0 0.0 0.0 0.00 0.00 0.00 67 993.3
20260507023917 66 0 0.0 0.0 0.00 0.00 0.00 66 993.2
20260507023417 66 0 0.0 0.0 0.00 0.00 0.00 67 993.1
20260507022917 66 0 0.0 0.0 0.00 0.00 0.00 66 993.2
20260507022417 66 0 0.0 0.0 0.00 0.00 0.00 66 993.1
20260507021917 66 0 0.0 0.0 0.00 0.00 0.00 66 993.1
20260507021417 66 0 0.0 0.0 0.00 0.00 0.00 66 993.3
20260507020917 66 0 0.0 0.0 0.00 0.00 0.00 66 993.2
20260507020417 66 0 0.0 0.0 0.00 0.00 0.00 66 993.1
20260507015917 66 0 0.0 0.0 0.00 0.00 0.00 65 993.1
20260507015417 66 0 0.0 0.0 0.00 0.00 0.00 65 993.2
20260507014917 66 0 0.0 0.0 0.00 0.00 0.00 65 993.2
20260507014417 66 0 0.0 0.0 0.00 0.00 0.00 64 993.6
20260507013917 66 0 0.0 0.0 0.00 0.00 0.00 64 993.5
20260507013417 66 0 0.0 0.0 0.00 0.00 0.00 64 993.3
20260507012917 66 0 0.0 0.0 0.00 0.00 0.00 64 993.2
20260507012417 66 0 0.0 0.0 0.00 0.00 0.00 64 993.3
20260507011917 66 0 0.0 0.0 0.00 0.00 0.00 63 993.2
20260507011417 66 0 0.0 0.0 0.00 0.00 0.00 63 993.1
20260507010917 66 0 0.0 0.0 0.00 0.00 0.00 62 992.8
20260507010508 66 0 0.0 0.0 0.00 0.00 0.00 62 992.9
20260507005917 66 0 0.0 0.0 0.00 0.00 0.00 62 993.0
20260507005417 66 0 0.0 0.0 0.00 0.00 0.00 61 993.3
20260507004917 66 0 0.0 0.0 0.00 0.00 0.00 60 993.3
20260507004417 66 0 0.0 0.0 0.00 0.00 0.00 59 993.4
20260507003917 67 0 0.0 0.0 0.00 0.00 0.00 58 993.3
20260507003417 67 0 0.0 0.0 0.00 0.00 0.00 58 993.3
20260507002917 67 0 0.0 0.0 0.00 0.00 0.00 57 993.3
20260507002417 67 0 0.0 0.0 0.00 0.00 0.00 57 993.2
20260507001917 67 0 0.0 0.0 0.00 0.00 0.00 57 993.2
20260507001417 67 0 0.0 0.0 0.00 0.00 0.00 57 993.2
20260507000917 67 0 0.0 0.0 0.00 0.00 0.00 57 993.0
20260507000417 67 0 0.0 0.0 0.00 0.00 0.00 56 992.8
20260506235917 67 0 0.0 0.0 0.00 0.00 0.00 57 992.8
20260506235417 67 0 0.0 0.0 0.00 0.00 0.00 57 992.6
20260506234917 67 0 0.0 0.0 0.00 0.00 0.00 57 992.5
20260506234417 67 0 0.0 0.0 0.00 0.00 0.00 57 992.7
20260506233917 67 0 0.0 0.0 0.00 0.00 0.00 57 992.5
20260506233417 67 0 0.0 0.0 0.00 0.00 0.00 57 992.5
20260506232917 67 0 0.0 0.0 0.00 0.00 0.00 57 992.6
20260506232417 67 0 0.0 0.0 0.00 0.00 0.00 56 992.4
20260506231917 67 0 0.0 0.0 0.00 0.00 0.00 56 992.5
20260506231417 67 0 0.0 0.0 0.00 0.00 0.00 56 992.5
20260506230917 67 0 0.0 0.0 0.00 0.00 0.00 56 992.7
20260506230417 68 0 0.0 0.0 0.00 0.00 0.00 56 992.6
20260506225917 68 0 0.0 0.0 0.00 0.00 0.00 56 992.6
20260506225417 67 0 0.0 0.0 0.00 0.00 0.00 56 992.6
20260506224917 68 0 0.0 0.0 0.00 0.00 0.00 56 992.8
20260506224417 68 0 0.0 0.0 0.00 0.00 0.00 56 992.8
20260506223917 67 0 0.0 0.0 0.00 0.00 0.00 57 992.9
20260506223417 67 0 0.0 0.0 0.00 0.00 0.00 57 993.0
20260506222917 67 0 0.0 0.0 0.00 0.00 0.00 57 993.0
20260506222417 67 0 0.0 0.0 0.00 0.00 0.00 57 992.8
20260506221917 67 0 0.0 0.0 0.00 0.00 0.00 57 992.9
20260506221417 67 0 0.0 0.0 0.00 0.00 0.00 56 992.9
20260506220917 67 0 0.0 0.0 0.00 0.00 0.00 56 992.9
20260506220417 67 0 0.0 0.0 0.00 0.00 0.00 56 992.7
20260506215917 67 0 0.0 0.0 0.00 0.00 0.00 56 992.6
20260506215417 68 0 0.0 0.0 0.00 0.00 0.00 56 992.6
20260506214917 67 0 0.0 0.0 0.00 0.00 0.00 56 992.5
20260506214417 67 0 0.0 0.0 0.00 0.00 0.00 56 992.5
20260506213917 67 0 0.0 0.0 0.00 0.00 0.00 56 992.4
20260506213417 67 0 0.0 0.0 0.00 0.00 0.00 56 992.3
20260506212917 67 0 0.0 0.0 0.00 0.00 0.00 56 992.4
20260506212417 68 0 0.0 0.0 0.00 0.00 0.00 55 992.3
20260506211917 68 0 0.0 0.0 0.00 0.00 0.00 55 992.5
20260506211417 68 0 0.0 0.0 0.00 0.00 0.00 55 992.5
20260506210917 68 0 0.0 0.0 0.00 0.00 0.00 55 992.3
20260506210417 68 0 0.0 0.0 0.00 0.00 0.00 54 992.4
20260506205917 68 0 0.0 0.0 0.00 0.00 0.00 54 992.4
20260506205417 69 0 0.0 0.0 0.00 0.00 0.00 54 992.5
20260506204917 69 0 0.0 0.0 0.00 0.00 0.00 54 992.5
20260506204417 69 0 0.0 0.0 0.00 0.00 0.00 54 992.7
20260506203917 69 0 0.0 0.0 0.00 0.00 0.00 54 992.7
20260506203417 69 0 0.0 0.0 0.00 0.00 0.00 54 992.6
20260506202917 69 0 0.0 0.0 0.00 0.00 0.00 54 992.6
20260506202417 69 0 0.0 0.0 0.00 0.00 0.00 53 992.6
20260506201917 70 0 0.0 0.0 0.00 0.00 0.00 53 992.5
20260506201417 70 0 0.0 0.0 0.00 0.00 0.00 53 992.7
20260506200917 70 0 0.0 0.0 0.00 0.00 0.00 53 992.6
20260506200417 70 0 0.0 0.0 0.00 0.00 0.00 53 992.7
20260506195917 70 0 0.0 0.0 0.00 0.00 0.00 53 992.7
20260506195417 70 0 0.0 0.0 0.00 0.00 0.00 53 992.7
20260506194917 70 0 0.0 0.0 0.00 0.00 0.00 53 992.6
20260506194417 70 0 0.0 0.0 0.00 0.00 0.00 52 992.6
20260506193917 70 0 0.0 0.0 0.00 0.00 0.00 52 992.6
20260506193417 70 0 0.0 0.0 0.00 0.00 0.00 51 992.6
20260506192917 70 0 0.0 0.0 0.00 0.00 0.00 51 992.6
20260506192417 71 0 0.0 0.0 0.00 0.00 0.00 51 992.5
20260506191917 71 0 0.0 0.0 0.00 0.00 0.00 50 992.5
20260506191417 71 0 0.0 0.0 0.00 0.00 0.00 50 992.3
20260506190917 71 0 0.0 0.0 0.00 0.00 0.00 50 992.5
20260506190417 71 0 0.0 0.0 0.00 0.00 0.00 49 992.4
20260506185917 72 0 0.0 0.0 0.00 0.00 0.00 49 992.3
20260506185417 72 0 0.0 0.0 0.00 0.00 0.00 49 992.3
20260506184917 72 0 0.0 0.0 0.00 0.00 0.00 48 992.2
20260506184417 72 0 0.0 0.0 0.00 0.00 0.00 48 992.3
20260506183917 73 0 0.0 0.0 0.00 0.00 0.00 47 992.1
20260506183417 73 0 0.0 0.0 0.00 0.00 0.00 47 992.3
20260506182917 73 0 0.0 0.0 0.00 0.00 0.00 47 992.1
20260506182417 73 0 0.0 0.0 0.00 0.00 0.00 47 992.1
20260506181917 73 0 0.0 0.0 0.00 0.00 0.00 46 992.0
20260506181417 73 0 0.0 0.0 0.00 0.00 0.00 46 992.1
20260506180917 73 0 0.0 0.0 0.00 0.00 0.00 46 992.1
20260506180417 74 0 0.0 0.0 0.00 0.00 0.00 46 992.1
20260506175917 74 0 0.0 0.0 0.00 0.00 0.00 45 992.0
20260506175417 74 0 0.0 0.0 0.00 0.00 0.00 45 991.9
20260506174917 74 0 0.0 0.0 0.00 0.00 0.00 45 992.0
20260506174417 75 0 0.0 0.0 0.00 0.00 0.00 44 991.9
20260506173917 75 0 0.0 0.0 0.00 0.00 0.00 44 992.0
20260506173417 75 0 0.0 0.0 0.00 0.00 0.00 44 991.9
20260506172917 75 0 0.0 0.0 0.00 0.00 0.00 43 991.9
20260506172417 75 0 0.0 0.0 0.00 0.00 0.00 43 992.0
20260506171917 76 0 0.0 0.0 0.00 0.00 0.00 42 991.9
20260506171417 76 0 0.0 0.0 0.00 0.00 0.00 42 991.8
20260506170917 77 0 0.0 0.0 0.00 0.00 0.00 41 992.0
20260506170417 77 0 0.0 0.0 0.00 0.00 0.00 41 991.8
20260506165917 78 0 0.0 0.0 0.00 0.00 0.00 41 991.8
20260506165417 79 0 0.0 0.0 0.00 0.00 0.00 40 991.9
20260506164917 79 0 0.0 0.0 0.00 0.00 0.00 40 991.8
20260506164417 79 0 0.0 0.0 0.00 0.00 0.00 40 991.7
20260506163917 79 0 0.0 0.0 0.00 0.00 0.00 40 991.6
20260506163417 79 0 0.0 0.0 0.00 0.00 0.00 40 991.7
20260506162917 79 0 0.0 0.0 0.00 0.00 0.00 40 991.6
20260506162417 79 0 0.0 0.0 0.00 0.00 0.00 40 991.6
20260506161917 79 0 0.0 0.0 0.00 0.00 0.00 40 991.7
20260506161417 79 0 0.0 0.0 0.00 0.00 0.00 41 991.5
20260506160917 79 0 0.0 0.0 0.00 0.00 0.00 41 991.4
20260506160417 78 0 0.0 0.0 0.00 0.00 0.00 42 991.5
20260506155917 77 0 0.0 0.0 0.00 0.00 0.00 42 991.3
20260506155417 77 0 0.0 0.0 0.00 0.00 0.00 42 991.3
20260506154917 77 0 0.0 0.0 0.00 0.00 0.00 42 991.3
20260506154417 77 0 0.0 0.0 0.00 0.00 0.00 42 991.4
20260506153917 77 0 0.0 0.0 0.00 0.00 0.00 42 991.5
20260506153417 77 0 0.0 0.0 0.00 0.00 0.00 42 991.5
20260506152917 77 0 0.0 0.0 0.00 0.00 0.00 41 991.4
20260506152417 77 0 0.0 0.0 0.00 0.00 0.00 41 991.4
20260506151917 77 0 0.0 0.0 0.00 0.00 0.00 41 991.6
20260506151417 77 0 0.0 0.0 0.00 0.00 0.00 41 991.5
20260506150917 77 0 0.0 0.0 0.00 0.00 0.00 40 991.4
20260506150417 77 0 0.0 0.0 0.00 0.00 0.00 40 991.4
20260506145917 78 0 0.0 0.0 0.00 0.00 0.00 41 991.6
20260506145417 77 0 0.0 0.0 0.00 0.00 0.00 41 991.5
20260506144917 77 0 0.0 0.0 0.00 0.00 0.00 41 991.5
20260506144417 77 0 0.0 0.0 0.00 0.00 0.00 41 991.6
20260506143917 77 0 0.0 0.0 0.00 0.00 0.00 41 991.6
20260506143417 77 0 0.0 0.0 0.00 0.00 0.00 41 991.7
20260506142917 77 0 0.0 0.0 0.00 0.00 0.00 41 991.7
20260506142417 77 0 0.0 0.0 0.00 0.00 0.00 41 991.7
20260506141917 77 0 0.0 0.0 0.00 0.00 0.00 41 991.8
20260506141417 77 0 0.0 0.0 0.00 0.00 0.00 41 991.7
20260506140917 77 0 0.0 0.0 0.00 0.00 0.00 41 991.5
20260506140417 77 0 0.0 0.0 0.00 0.00 0.00 40 991.7
20260506135917 77 0 0.0 0.0 0.00 0.00 0.00 40 991.5
20260506135417 77 0 0.0 0.0 0.00 0.00 0.00 40 991.5
20260506134917 77 0 0.0 0.0 0.00 0.00 0.00 40 991.6
20260506134417 78 0 0.0 0.0 0.00 0.00 0.00 40 991.6
20260506133918 78 0 0.0 0.0 0.00 0.00 0.00 41 991.6
20260506133417 77 0 0.0 0.0 0.00 0.00 0.00 41 991.7
20260506132918 77 0 0.0 0.0 0.00 0.00 0.00 41 991.6
20260506132418 77 0 0.0 0.0 0.00 0.00 0.00 41 991.5
20260506131918 77 0 0.0 0.0 0.00 0.00 0.00 41 991.5
20260506131418 77 0 0.0 0.0 0.00 0.00 0.00 41 991.4
20260506130918 77 0 0.0 0.0 0.00 0.00 0.00 41 991.4
20260506130418 77 0 0.0 0.0 0.00 0.00 0.00 42 991.3
20260506125918 76 0 0.0 0.0 0.00 0.00 0.00 42 991.3
20260506125418 76 0 0.0 0.0 0.00 0.00 0.00 42 991.4
20260506124918 76 0 0.0 0.0 0.00 0.00 0.00 42 991.8
20260506124418 76 0 0.0 0.0 0.00 0.00 0.00 42 991.7
20260506123918 76 0 0.0 0.0 0.00 0.00 0.00 41 991.6
20260506123418 77 0 0.0 0.0 0.00 0.00 0.00 41 991.6
20260506122918 77 0 0.0 0.0 0.00 0.00 0.00 41 991.7
20260506122418 77 0 0.0 0.0 0.00 0.00 0.00 40 991.5
20260506121918 77 0 0.0 0.0 0.00 0.00 0.00 40 991.7
20260506121418 78 0 0.0 0.0 0.00 0.00 0.00 40 991.6
20260506120918 78 0 0.0 0.0 0.00 0.00 0.00 39 991.5
20260506120418 78 0 0.0 0.0 0.00 0.00 0.00 39 991.7
20260506115918 78 0 0.0 0.0 0.00 0.00 0.00 39 991.6
20260506115418 78 0 0.0 0.0 0.00 0.00 0.00 40 991.5
20260506114918 78 0 0.0 0.0 0.00 0.00 0.00 39 991.5
20260506114418 78 0 0.0 0.0 0.00 0.00 0.00 40 991.3
20260506113918 78 0 0.0 0.0 0.00 0.00 0.00 39 991.4
20260506113418 78 0 0.0 0.0 0.00 0.00 0.00 39 991.4
20260506112918 78 0 0.0 0.0 0.00 0.00 0.00 40 991.4
20260506112418 78 0 0.0 0.0 0.00 0.00 0.00 40 991.5
20260506111918 78 0 0.0 0.0 0.00 0.00 0.00 40 991.3
20260506111418 77 0 0.0 0.0 0.00 0.00 0.00 40 991.4
20260506110918 77 0 0.0 0.0 0.00 0.00 0.00 40 991.4
20260506110418 77 0 0.0 0.0 0.00 0.00 0.00 40 991.6
20260506105918 77 0 0.0 0.0 0.00 0.00 0.00 40 991.5
20260506105418 77 0 0.0 0.0 0.00 0.00 0.00 39 991.3
20260506104918 77 0 0.0 0.0 0.00 0.00 0.00 39 991.5
20260506104418 77 0 0.0 0.0 0.00 0.00 0.00 39 991.6
20260506103918 77 0 0.0 0.0 0.00 0.00 0.00 38 991.8
20260506103418 78 0 0.0 0.0 0.00 0.00 0.00 38 991.7
20260506102918 78 0 0.0 0.0 0.00 0.00 0.00 37 991.6
20260506102418 78 0 0.0 0.0 0.00 0.00 0.00 37 991.5
20260506101918 78 0 0.0 0.0 0.00 0.00 0.00 37 991.5
20260506101418 78 0 0.0 0.0 0.00 0.00 0.00 37 991.6
20260506100918 78 0 0.0 0.0 0.00 0.00 0.00 37 991.5
20260506100418 78 0 0.0 0.0 0.00 0.00 0.00 37 991.5
20260506095918 77 0 0.0 0.0 0.00 0.00 0.00 37 991.7
20260506095418 77 0 0.0 0.0 0.00 0.00 0.00 37 991.6
20260506094918 77 0 0.0 0.0 0.00 0.00 0.00 37 991.5
20260506094418 77 0 0.0 0.0 0.00 0.00 0.00 37 991.5
20260506093918 77 0 0.0 0.0 0.00 0.00 0.00 36 991.6
20260506093418 77 0 0.0 0.0 0.00 0.00 0.00 36 991.6
20260506092918 77 0 0.0 0.0 0.00 0.00 0.00 36 991.4
20260506092418 78 0 0.0 0.0 0.00 0.00 0.00 35 991.4
20260506091918 78 0 0.0 0.0 0.00 0.00 0.00 35 991.4
20260506091418 78 0 0.0 0.0 0.00 0.00 0.00 35 991.4
20260506090918 79 0 0.0 0.0 0.00 0.00 0.00 35 991.5
20260506090418 79 0 0.0 0.0 0.00 0.00 0.00 35 991.6
20260506085918 79 0 0.0 0.0 0.00 0.00 0.00 35 991.6
20260506085418 79 0 0.0 0.0 0.00 0.00 0.00 35 991.5
20260506084918 79 0 0.0 0.0 0.00 0.00 0.00 35 991.3
20260506084418 79 0 0.0 0.0 0.00 0.00 0.00 36 991.3
20260506083918 80 0 0.0 0.0 0.00 0.00 0.00 35 991.3
20260506083418 80 0 0.0 0.0 0.00 0.00 0.00 36 991.4
20260506082918 80 0 0.0 0.0 0.00 0.00 0.00 36 991.2
20260506082418 80 0 0.0 0.0 0.00 0.00 0.00 37 991.0
20260506081918 79 0 0.0 0.0 0.00 0.00 0.00 37 991.2
20260506081418 79 0 0.0 0.0 0.00 0.00 0.00 37 991.3
20260506080918 79 0 0.0 0.0 0.00 0.00 0.00 37 991.4
20260506080418 79 0 0.0 0.0 0.00 0.00 0.00 39 991.4
20260506073418 76 0 0.0 0.0 0.00 0.00 0.00 43 991.6
20260506072918 76 0 0.0 0.0 0.00 0.00 0.00 43 991.7
20260506072418 76 0 0.0 0.0 0.00 0.00 0.00 44 991.8
20260506071918 76 0 0.0 0.0 0.00 0.00 0.00 43 991.9
20260506071418 76 0 0.0 0.0 0.00 0.00 0.00 44 991.8
20260506070918 76 0 0.0 0.0 0.00 0.00 0.00 44 991.9
20260506070418 75 0 0.0 0.0 0.00 0.00 0.00 45 992.0